Temp
28 22 24 24 24 24 24 24 23 23 23 23 23 23 22 23 22 22 21 21 21 21 21 21 21 21 22 22 22 21 21 21 20 20 20 20 19 19 20 20 20 21 19
26 22 23 24 24 24 24 24 24 23 22 22 22 23 22 22 22 22 21 21 21 21 21 21 21 21 21 22 21 21 21 20 20 20 20 20 20 20 20 20 20 20 19
25 21 22 24 24 23 23 23 23 23 23 22 22 22 22 22 22 22 21 21 20 20 21 21 21 21 21 21 21 21 21 20 20 21 21 22 21 20 20 19 20 20 19
26 24 22 23 23 23 23 23 22 23 23 22 22 22 22 22 21 21 21 20 20 20 20 20 20 21 21 21 21 20 20 20 21 22 21 22 22 20 20 20 19 19 19
26 25 21 22 22 22 22 23 23 23 23 22 22 22 21 21 21 21 21 21 20 20 20 20 20 20 21 20 21 21 20 21 22 23 24 23 22 21 20 19 19 19 19
24 21 19 21 22 22 22 22 23 23 23 22 22 22 22 21 21 21 21 20 20 20 20 19 19 20 20 20 20 20 21 21 22 22 25 23 22 20 21 20 19 19 19
22 20 18 21 22 22 22 22 22 22 22 22 22 22 21 21 21 20 20 20 20 20 20 19 19 20 20 20 20 20 20 21 21 24 24 24 23 21 21 20 19 19 19
22 20 18 20 21 21 21 21 21 21 21 21 21 21 21 21 20 20 20 20 20 19 19 19 19 19 19 19 19 19 20 20 21 23 25 24 23 22 20 20 19 19 19
21 21 19 18 19 20 20 20 20 20 20 20 20 20 20 18 19 19 20 19 19 20 19 19 19 19 19 19 19 19 19 20 20 22 24 25 24 22 21 20 20 19 19
20 20 20 19 19 18 18 20 20 20 20 20 20 19 19 19 18 18 18 19 19 19 19 19 19 19 19 19 19 19 19 19 19 21 23 24 23 22 21 20 20 19 19
20 20 19 20 19 18 17 18 18 19 19 19 18 18 18 18 19 18 18 19 19 18 18 18 19 19 19 19 19 19 19 19 21 21 22 22 22 22 21 20 20 20 19
22 20 20 19 19 20 21 18 18 18 18 18 18 17 17 17 17 17 18 17 17 18 17 18 19 19 19 20 19 18 19 20 20 21 22 22 21 21 20 20 20 20 20
23 22 20 19 19 20 20 20 21 21 19 17 16 17 16 16 16 16 16 16 17 17 18 18 18 19 19 19 19 19 19 20 22 23 23 22 21 20 20 19 19 19 19
23 22 20 20 19 19 20 20 19 19 19 18 16 16 16 15 15 15 14 15 15 16 17 17 18 17 19 19 19 19 19 21 22 22 21 20 20 20 19 19 18 18 18
23 21 20 19 18 18 18 18 18 17 17 16 16 14 17 16 15 15 14 14 15 15 15 16 17 18 18 18 18 18 19 19 20 20 21 20 19 19 18 18 18 18 17
23 20 19 19 18 17 17 16 16 16 15 15 14 14 14 16 15 16 16 17 16 16 16 16 16 17 18 18 18 18 18 18 18 19 19 19 19 18 18 16 16 16 16
22 20 18 17 17 16 16 15 15 15 15 14 13 12 12 13 13 15 16 16 15 15 15 16 16 16 17 18 18 18 18 18 18 18 17 18 19 18 16 15 15 14 15
22 20 18 17 16 16 15 15 15 14 14 14 13 12 11 12 13 14 15 14 13 14 14 15 16 16 17 17 17 17 18 18 18 17 17 17 18 17 15 14 14 14 15
22 19 18 16 16 15 14 14 14 13 14 13 13 12 10 11 11 13 13 12 12 13 13 13 14 14 15 16 16 16 17 17 17 18 17 15 14 13 14 13 13 13 13
22 19 18 16 15 14 14 13 14 13 13 13 12 11 11 10 10 12 11 11 12 13 13 12 12 13 14 14 14 17 17 17 17 17 15 16 13 13 12 12 13 12 10
21 19 18 16 15 14 14 15 14 14 13 12 11 10 10 9 9 11 11 11 12 11 11 11 12 13 14 13 15 17 18 16 16 16 15 13 12 13 11 11 11 10 9
20 18 17 16 15 15 15 16 16 14 13 12 11 9 9 8 9 9 10 10 10 11 10 10 10 12 13 12 13 15 19 18 16 16 15 14 12 13 12 11 10 10 8
18 18 17 17 15 15 16 15 14 13 11 11 10 9 8 8 8 8 9 9 9 10 10 9 10 10 13 12 11 13 16 18 15 16 15 14 12 12 12 12 11 8 7
18 17 17 17 15 15 15 14 13 13 13 13 12 10 8 7 7 7 8 8 8 9 9 9 9 10 11 12 12 11 11 10 14 15 14 13 11 11 12 11 9 7 7
18 17 17 16 16 15 13 14 13 14 15 12 11 8 8 7 7 7 7 8 8 8 7 7 7 8 9 10 10 10 10 11 9 10 11 12 9 10 10 6 5 4 4
19 17 16 16 15 15 13 14 13 14 12 12 10 9 9 8 7 6 6 7 7 6 7 6 6 6 7 7 8 7 8 8 7 6 7 8 9 10 9 4 3 4 2
Height
781 787 790 793 796 796 798 799 800 802 804 806 807 808 809 811 812 814 815 816 818 818 819 819 820 820 820 820 820 820 820 819 820 821 821 821 822 823 824 825 825 826 826
783 790 790 793 796 798 799 801 801 802 805 807 809 810 812 813 813 815 817 818 819 820 821 821 821 821 822 822 821 822 822 822 822 822 823 823 824 825 826 826 826 827 828
786 791 792 794 796 798 800 801 803 802 805 808 809 811 813 814 815 816 818 819 820 821 822 822 822 822 823 823 823 823 823 823 824 823 823 825 825 827 828 828 829 829 831
788 793 795 795 797 800 801 803 805 804 805 808 809 810 813 814 816 817 818 820 820 821 822 823 823 823 824 824 824 824 824 824 825 824 823 826 826 827 828 829 830 831 832
787 791 792 794 796 799 802 803 804 805 807 809 810 811 812 814 815 816 818 820 821 822 823 824 824 824 824 824 824 824 825 826 825 824 824 826 827 828 829 830 831 832 832
791 793 792 794 797 799 801 804 804 806 807 810 810 812 812 813 815 816 817 819 821 822 822 824 824 824 824 824 825 825 825 826 825 824 824 826 828 828 828 830 831 833 834
793 794 794 795 797 799 802 803 805 806 808 809 811 812 813 814 815 816 817 818 820 821 823 824 825 824 824 824 825 825 825 826 825 825 826 827 827 827 828 829 831 832 833
794 795 796 796 798 799 801 803 804 806 808 809 811 812 813 814 814 815 816 818 819 820 822 823 824 824 824 824 825 825 825 825 826 826 825 825 825 827 828 829 829 830 831
794 796 798 798 799 799 801 802 804 805 807 809 810 811 812 813 814 815 816 816 818 818 820 821 823 823 824 823 823 823 824 824 824 825 823 823 821 824 826 828 829 830 830
793 796 798 800 802 802 801 802 803 805 806 808 809 810 811 812 814 815 815 816 817 817 818 819 820 821 822 822 822 821 822 823 823 824 822 821 821 822 825 826 827 828 829
792 794 797 800 801 803 804 804 804 805 807 808 809 810 812 813 814 813 814 814 815 816 816 817 817 818 819 820 820 819 820 822 822 822 821 821 821 823 824 824 826 826 827
789 792 795 798 801 803 805 806 808 808 809 809 810 810 810 810 811 811 813 814 814 814 815 815 816 817 817 819 818 818 818 819 819 820 818 818 818 821 823 823 824 825 825
786 789 793 796 799 802 804 806 807 809 810 810 809 809 809 809 810 811 812 814 815 814 815 815 815 816 817 816 817 816 816 816 815 814 814 815 817 817 819 818 821 822 823
785 788 791 794 798 800 803 805 806 807 809 810 810 810 809 809 809 810 811 812 814 814 815 815 815 814 815 816 815 816 815 814 811 812 813 814 815 814 815 815 816 817 818
784 788 791 793 796 800 802 803 805 806 807 808 809 809 810 810 810 811 810 811 812 812 813 813 814 815 814 814 814 814 814 813 813 813 813 813 812 812 812 813 812 812 813
783 788 791 793 795 798 800 802 804 805 807 808 808 808 810 810 810 812 812 813 813 814 814 814 813 813 813 813 813 812 812 812 812 812 812 812 811 810 809 808 809 809 809
780 786 789 792 794 796 798 800 803 805 806 808 808 807 808 811 810 811 812 813 814 814 813 813 813 812 812 812 812 811 810 810 810 810 810 810 810 806 805 805 805 806 807
777 782 786 789 792 795 797 800 802 804 806 806 808 809 808 809 809 811 812 813 813 814 814 813 813 812 811 811 811 810 809 809 809 809 808 809 808 808 806 804 803 804 804
773 779 784 787 790 793 796 798 802 804 806 805 809 809 807 809 809 811 812 813 813 814 814 813 813 812 812 811 810 808 807 807 807 807 808 807 808 808 808 807 804 803 802
769 775 780 784 787 791 794 797 800 803 806 806 808 809 808 808 809 810 811 812 813 814 814 813 813 813 812 812 810 807 806 806 806 807 808 809 810 810 809 809 808 803 803
766 771 776 781 784 788 791 793 797 800 804 806 807 807 808 807 807 808 810 812 813 813 813 814 813 812 811 810 806 804 802 805 806 807 808 810 811 811 811 810 809 807 804
763 769 772 777 780 783 787 789 793 798 803 805 807 808 808 807 807 808 809 811 812 814 814 814 813 812 811 810 809 805 797 801 805 806 808 810 813 813 813 811 810 808 807
760 765 768 772 775 779 783 787 791 797 803 805 806 807 808 809 808 808 809 811 812 813 815 814 814 813 811 811 811 810 803 798 806 802 807 809 811 812 812 811 810 809 808
761 765 767 770 774 776 779 784 787 791 797 801 804 807 807 808 809 810 810 811 812 812 813 814 814 814 813 813 813 814 814 815 809 806 806 810 812 812 811 809 809 811 810
757 765 768 770 773 776 779 780 784 787 791 797 803 805 806 807 809 809 811 812 812 813 814 813 813 814 816 816 816 815 815 814 817 818 814 810 814 813 811 812 811 811 812
750 759 767 768 770 772 777 778 779 782 788 794 800 803 804 806 808 810 811 811 812 813 814 815 816 817 816 817 819 819 819 820 822 823 821 816 814 810 809 813 813 812 812
Wind_Speed
15 13 15 14 12 12 10 9 9 11 11 11 12 12 14 13 13 12 13 13 11 9 7 6 6 5 6 7 8 8 9 9 9 9 9 10 10 11 12 12 11 9 12
17 12 16 15 14 12 12 11 11 12 12 12 11 12 13 13 12 11 11 11 10 7 6 5 4 5 5 6 6 7 7 7 8 7 7 10 9 9 9 5 3 11 12
16 12 14 15 14 13 12 12 12 14 13 12 11 12 12 11 10 10 9 10 9 7 5 4 4 4 4 4 4 5 6 6 6 7 8 10 9 7 7 5 6 9 10
14 13 11 15 14 13 13 13 12 14 13 13 12 13 13 11 9 9 9 8 8 6 6 5 3 3 2 2 2 3 4 5 5 3 6 3 8 5 6 6 5 6 8
15 13 12 16 15 15 14 13 14 13 13 13 13 13 12 11 10 10 9 8 7 6 6 5 4 3 3 2 2 2 2 2 3 2 3 2 4 5 3 4 4 6 6
13 10 15 16 15 15 14 13 13 13 13 12 13 12 12 11 11 11 10 9 8 7 7 5 6 5 5 5 4 3 2 2 4 9 1 2 0 5 2 4 8 6 6
14 12 13 15 14 14 13 13 13 12 12 12 12 12 12 12 11 11 10 10 9 9 8 7 7 6 6 6 6 6 5 5 6 11 4 4 4 6 6 5 7 9 9
13 12 12 14 14 14 13 12 12 12 12 11 11 11 11 11 11 11 11 11 11 10 9 9 9 7 8 7 8 8 8 8 8 8 7 6 9 10 8 8 8 10 11
12 12 11 11 13 13 13 12 11 11 11 10 10 11 11 10 10 11 11 11 12 12 12 11 11 11 11 10 10 10 10 10 10 11 11 10 14 11 8 9 11 13 14
11 11 11 10 10 9 10 12 12 11 10 10 10 9 9 9 9 8 9 10 10 11 11 12 12 13 13 14 13 13 14 14 13 12 13 13 11 8 10 10 11 11 15
12 12 11 10 9 8 8 7 6 6 5 3 3 4 5 5 5 9 11 11 12 12 11 11 12 13 14 14 14 15 15 12 14 14 15 15 14 14 15 13 13 14 14
15 14 12 10 9 8 7 6 6 5 4 4 5 5 7 8 9 7 8 7 8 9 8 8 8 8 9 10 11 11 11 13 13 13 14 12 12 15 15 16 16 16 17
16 15 13 11 9 8 7 6 6 5 4 2 3 3 4 6 8 4 7 4 2 3 3 2 3 4 4 4 6 7 7 9 10 12 12 13 12 11 13 15 15 18 20
17 15 13 11 9 8 6 5 5 5 4 3 1 2 3 3 4 5 5 4 3 1 2 2 3 3 4 5 5 7 6 8 11 8 5 2 10 13 15 15 15 14 17
17 14 13 11 10 8 8 7 6 5 5 4 3 2 2 3 2 2 2 1 1 0 1 0 2 4 5 6 6 7 7 8 9 10 12 15 16 18 17 15 16 15 14
17 15 13 12 11 10 8 8 7 6 5 5 5 4 3 3 3 2 2 2 1 1 2 3 3 4 6 7 7 8 9 10 10 11 12 13 15 16 16 14 13 13 13
18 17 15 13 12 11 11 10 8 7 7 6 5 6 6 4 4 3 2 1 1 2 3 3 4 5 6 7 8 9 9 9 9 10 10 11 10 10 8 8 12 11 13
20 19 16 14 13 12 10 9 8 7 7 7 6 5 6 6 5 4 3 2 2 3 3 3 4 5 5 6 7 8 8 8 7 8 8 8 7 7 10 12 11 11 11
21 20 18 16 15 14 13 10 9 8 7 7 5 5 6 5 5 5 3 2 3 2 3 4 4 5 6 7 8 9 8 7 6 4 4 5 7 8 8 12 13 11 10
22 21 19 18 17 15 14 12 11 8 7 7 5 4 5 5 6 5 5 4 4 3 4 5 5 5 4 8 11 9 6 4 2 1 3 4 6 8 10 11 8 12 11
23 23 22 20 19 18 16 15 13 11 9 8 6 6 6 5 6 6 5 4 4 5 5 5 3 2 3 8 6 6 4 2 2 1 3 5 7 7 10 11 10 12 14
25 24 24 23 22 20 17 15 13 11 10 9 7 6 5 6 6 6 6 5 5 4 4 5 6 3 4 9 7 6 2 6 3 2 2 2 5 7 8 9 9 10 11
27 27 26 25 24 22 18 16 15 12 11 10 9 8 6 6 7 7 7 6 6 5 5 6 7 8 5 6 9 5 3 2 8 9 4 7 10 9 13 12 9 8 10
25 25 25 25 25 23 21 19 20 18 15 13 11 9 9 8 7 7 7 7 7 7 7 7 7 7 5 5 2 5 3 3 3 3 3 10 10 12 12 11 14 15 13
25 24 24 24 24 23 22 20 21 17 14 15 13 14 11 10 8 8 8 8 8 7 8 8 8 8 7 5 5 4 3 3 3 3 6 8 13 10 10 13 11 14 16
24 25 24 25 25 24 23 22 22 19 17 18 16 15 14 12 10 8 8 8 8 7 7 7 7 8 7 7 5 6 5 3 3 2 3 7 8 6 6 7 10 14 16
Wind_Direction
136 141 150 154 151 143 136 128 139 165 171 169 162 160 159 155 155 153 150 149 150 151 142 119 105 95 94 83 75 73 78 84 91 97 107 114 114 117 120 119 121 119 118
131 141 149 154 155 151 144 135 134 145 162 162 165 164 164 159 159 161 162 158 156 158 153 134 116 109 102 91 83 83 90 100 106 117 132 125 121 126 133 142 216 136 133
133 146 147 155 161 158 149 145 145 145 155 162 163 165 165 163 164 165 171 168 163 166 169 151 133 124 120 101 92 92 97 103 105 123 139 135 119 129 141 134 110 132 141
146 147 149 159 163 161 161 157 152 144 151 161 162 163 168 169 171 173 175 177 173 175 181 167 163 150 147 126 100 83 96 113 115 164 247 125 119 134 142 162 159 154 156
149 148 165 163 164 168 168 164 159 150 152 160 164 169 173 176 179 177 181 182 188 185 185 188 195 207 205 205 182 158 135 138 130 187 218 107 129 168 144 171 180 181 165
147 154 154 162 167 170 172 170 164 162 161 166 170 177 181 181 182 182 185 189 194 196 194 210 213 222 225 224 218 221 230 235 251 263 87 178 291 185 207 180 177 205 204
140 139 145 160 168 172 174 173 174 170 173 174 177 179 184 184 186 189 193 196 199 206 210 219 238 234 236 235 239 243 250 259 280 301 259 236 212 251 232 209 209 218 220
141 137 132 155 163 166 168 172 176 179 182 182 186 188 191 195 197 199 201 205 208 208 218 228 240 250 246 244 248 254 256 259 269 276 267 262 233 252 242 229 228 230 222
146 144 142 141 159 167 170 173 174 178 184 189 196 199 200 198 207 214 211 214 219 219 224 224 227 235 246 246 248 252 257 257 262 271 277 262 243 245 251 248 240 245 236
149 152 155 152 149 144 161 179 184 189 191 193 197 199 206 212 207 209 217 228 230 229 232 233 236 241 248 252 253 254 259 262 264 263 267 268 258 261 273 259 249 250 238
153 153 154 156 155 157 142 148 161 166 165 160 160 185 164 183 195 191 204 215 220 223 227 236 238 242 248 254 259 259 260 261 261 262 267 270 274 275 269 264 257 249 247
161 157 155 154 157 158 158 152 153 145 135 135 163 152 190 190 193 189 205 220 221 222 231 236 243 253 264 258 260 264 258 258 269 269 277 270 272 277 275 271 269 266 256
164 159 158 152 154 161 165 172 181 189 186 146 109 145 171 182 172 162 164 143 143 154 182 193 226 235 255 280 281 265 266 264 253 262 271 268 282 282 284 277 270 268 269
171 162 157 154 152 156 161 172 174 176 178 171 153 124 147 137 183 182 179 184 160 200 230 229 220 234 259 271 275 280 283 276 302 308 331 304 304 301 299 292 286 272 268
176 165 162 157 154 155 156 154 149 145 149 143 114 73 150 163 151 135 141 168 136 321 270 189 273 279 277 272 274 276 281 284 293 297 288 304 303 301 304 300 286 280 278
177 171 166 161 158 157 150 142 136 133 127 122 110 99 85 140 145 177 173 181 207 306 298 294 282 279 278 277 281 278 283 286 286 286 287 288 300 305 308 304 305 293 286
181 176 171 163 156 151 142 138 136 136 132 122 104 89 84 88 92 116 148 132 342 328 335 311 314 295 286 281 284 284 286 285 284 287 290 294 300 303 272 305 313 308 289
186 181 173 168 162 152 149 141 138 139 137 124 119 100 88 84 85 91 98 76 29 13 0 347 338 326 308 302 298 298 297 295 294 297 296 307 304 295 341 337 326 315 300
190 182 177 171 165 156 150 143 140 140 139 128 128 119 98 85 83 102 100 54 38 35 24 7 351 345 319 313 306 298 287 285 296 307 340 9 15 357 354 348 360 342 325
190 186 182 175 166 160 155 149 147 149 145 136 137 126 111 99 94 104 88 74 67 60 39 21 6 352 327 327 311 294 280 277 288 339 39 52 38 24 15 9 5 351 355
194 190 186 179 174 170 169 166 164 165 163 149 143 127 115 105 100 105 101 82 78 72 55 29 359 340 1 341 301 336 267 141 99 54 64 42 18 13 11 9 8 354 359
198 196 192 187 181 181 179 176 173 168 168 159 145 130 117 108 101 99 106 95 93 94 68 49 37 12 37 19 1 281 262 173 140 157 98 87 40 353 350 353 359 3 5
204 201 197 193 187 185 181 170 160 158 161 161 157 144 132 120 113 112 111 112 98 96 78 60 49 41 35 40 34 11 308 336 341 169 140 70 7 329 324 326 336 4 6
213 207 205 198 192 189 182 176 172 172 176 182 170 160 142 130 122 114 109 108 105 99 88 69 54 49 34 40 104 41 33 10 338 307 360 341 357 338 337 356 38 33 24
206 213 210 205 198 193 188 182 178 185 179 160 167 161 152 140 131 125 116 110 103 94 81 77 72 67 58 50 45 14 32 68 66 288 289 340 332 343 6 39 37 29 19
203 208 212 209 205 196 194 191 187 186 172 173 173 171 162 151 141 129 118 109 102 96 87 76 69 64 68 65 61 49 42 12 39 332 300 309 320 333 4 38 20 3 356